Location: Kellogg
(38.0159°N, 90.0546°W)
Time: 07:41:37
(UTC+00:00)

S-56A Canister/Altair - Pass Details

Date: 16 September 2024
Orbit: 636 x 2487 km, 38.9° (Epoch: 09 October)

Event Time Altitude Azimuth Distance (km) Brightness Sun altitude
Rises 03:21:42 0° 279° (W) 3,685 11.8 -36.2°
Reaches altitude 10° 03:23:56 10° 279° (W) 2,919 11.1 -36.6°
Enters shadow 03:30:02 71° 278° (W) 1,444 8.8 -37.5°
Maximum altitude 03:31:14 89° 190° (S) 1,437 - -37.6°
Drops below altitude 10° 03:42:34 10° 103° (ESE) 4,390 - -39.3°
Sets 03:46:40 0° 103° (ESE) 5,636 - -39.8°
